EW9547 Weather Reports


time (UTC)temp
C
wind
direction
speed
KPH
gust
KPH
rain 1hr
cm
rain 24hr
cm
rain mn
cm
humidity
%
barometer
mb
20260906123050 24 234 0.0 0.0 0.00 0.00 0.00 83 1016.5
20260906121556 23 234 0.0 0.0 0.00 0.00 0.00 83 1016.4
20260906120005 23 234 0.0 0.0 0.00 0.00 0.00 84 1016.2
20260906114522 23 234 0.0 0.0 0.00 0.00 0.00 83 1016.0
20260906113025 23 234 0.0 11.3 0.00 0.00 0.00 83 1015.8
20260906111552 23 234 0.0 0.0 0.00 0.00 0.00 84 1015.6
20260906110053 23 234 0.0 1.6 0.00 0.00 0.00 84 1015.5
20260906104515 23 234 0.0 11.3 0.00 0.00 0.00 84 1015.3
20260906103043 23 234 0.0 16.1 0.00 0.00 0.00 83 1015.2
20260906101558 23 235 0.0 17.7 0.00 0.00 0.00 83 1015.3
20260906100006 23 237 3.2 19.3 0.00 0.00 0.00 84 1015.4
20260906094535 23 240 3.2 20.9 0.00 0.00 0.00 84 1015.5
20260906093041 23 254 1.6 16.1 0.00 0.00 0.00 84 1015.3
20260906091551 23 257 3.2 16.1 0.00 0.00 0.00 84 1015.2
20260906090007 23 259 0.0 0.0 0.00 0.00 0.00 84 1015.3
20260906084521 23 259 0.0 16.1 0.00 0.00 0.00 84 1015.2
20260906083038 23 259 1.6 14.5 0.00 0.00 0.00 84 1015.2
20260906081544 23 260 1.6 16.1 0.00 0.00 0.00 84 1015.3
20260906080107 23 265 0.0 19.3 0.00 0.00 0.00 82 1015.4
20260906074504 23 273 0.0 9.7 0.00 0.00 0.00 82 1015.4
20260906073013 23 273 0.0 1.6 0.00 0.00 0.00 82 1015.6
20260906071532 23 273 0.0 0.0 0.00 0.00 0.00 81 1015.8
20260906070039 23 273 0.0 16.1 0.00 0.00 0.00 82 1016.0
20260906064548 24 273 0.0 4.8 0.00 0.00 0.00 82 1015.7
20260906063059 24 273 0.0 0.0 0.00 0.00 0.00 81 1015.7
20260906061507 24 273 0.0 0.0 0.00 0.00 0.00 81 1015.8
20260906060033 24 273 0.0 1.6 0.00 0.00 0.00 81 1016.0
20260906054538 25 274 0.0 6.4 0.00 0.00 0.00 80 1016.4
20260906053047 25 275 0.0 3.2 0.00 0.00 0.00 79 1016.5
20260906051535 26 273 0.0 14.5 0.00 0.00 0.00 76 1016.2
20260906050049 26 280 0.0 14.5 0.00 0.00 0.00 72 1016.3
20260906044513 27 280 0.0 14.5 0.00 0.00 0.00 70 1016.0
20260906043032 27 282 0.0 1.6 0.00 0.00 0.00 71 1016.2
20260906041544 27 281 0.0 1.6 0.00 0.00 0.00 70 1016.2
20260906040058 27 281 0.0 0.0 0.00 0.00 0.00 68 1015.5
20260906034510 27 281 0.0 0.0 0.00 0.00 0.00 67 1015.7
20260906033024 27 281 0.0 0.0 0.00 0.00 0.00 67 1015.7
20260906031534 27 281 0.0 0.0 0.00 0.00 0.00 67 1015.6
20260906030042 28 281 0.0 0.0 0.00 0.00 0.00 67 1015.5
20260906024551 28 281 0.0 0.0 0.00 0.00 0.00 65 1015.3
20260906023049 28 281 0.0 0.0 0.00 0.00 0.00 65 1015.0
20260906021606 28 281 0.0 0.0 0.00 0.00 0.00 64 1014.7
20260906020010 28 281 0.0 0.0 0.00 0.00 0.00 64 1014.3
20260906014540 28 281 0.0 0.0 0.00 0.00 0.00 62 1014.5
20260906013039 29 281 0.0 4.8 0.00 0.00 0.00 61 1014.4
20260906011546 30 281 0.0 11.3 0.00 0.00 0.00 60 1014.5
20260906010113 31 281 0.0 16.1 0.00 0.00 0.00 59 1014.7
20260906004503 33 285 0.0 0.0 0.00 0.00 0.00 55 1014.5
20260906003029 33 285 0.0 1.6 0.00 0.00 0.00 52 1014.3
20260906001541 34 285 0.0 1.6 0.00 0.00 0.00 50 1014.4
20260905234510 36 285 0.0 8.0 0.00 0.00 0.00 45 1014.2
20260905233029 36 284 0.0 1.6 0.00 0.00 0.00 45 1014.2
20260905231538 37 285 0.0 8.0 0.00 0.00 0.00 42 1014.1
20260905230055 37 285 0.0 1.6 0.00 0.00 0.00 42 1014.1
20260905224509 37 284 0.0 4.8 0.00 0.00 0.00 41 1014.1
20260905223024 37 284 0.0 1.6 0.00 0.00 0.00 41 1014.2
20260905221546 37 285 1.6 17.7 0.00 0.00 0.00 41 1014.2
20260905220054 37 284 0.0 12.9 0.00 0.00 0.00 40 1014.1
20260905214510 38 286 1.6 16.1 0.00 0.00 0.00 39 1014.2
20260905213035 38 288 0.0 6.4 0.00 0.00 0.00 38 1014.3
20260905211538 37 288 0.0 4.8 0.00 0.00 0.00 39 1014.3
20260905210050 38 289 0.0 16.1 0.00 0.00 0.00 38 1014.5
20260905204502 38 288 0.0 6.4 0.00 0.00 0.00 38 1014.6
20260905203008 38 288 0.0 4.8 0.00 0.00 0.00 40 1014.8
20260905201521 38 294 0.0 3.2 0.00 0.00 0.00 39 1015.0
20260905200047 38 293 0.0 6.4 0.00 0.00 0.00 38 1015.4
20260905194537 38 293 0.0 0.0 0.00 0.00 0.00 39 1015.6
20260905193105 37 293 0.0 1.6 0.00 0.00 0.00 40 1015.7
20260905191510 37 293 0.0 0.0 0.00 0.00 0.00 43 1015.7
20260905190032 37 294 0.0 0.0 0.00 0.00 0.00 41 1016.1
20260905184536 37 294 0.0 11.3 0.00 0.00 0.00 43 1016.3
20260905183042 36 293 0.0 3.2 0.00 0.00 0.00 45 1016.5
20260905181550 38 293 0.0 4.8 0.00 0.00 0.00 41 1016.9
20260905180100 38 293 0.0 1.6 0.00 0.00 0.00 42 1017.0
20260905174508 38 293 0.0 1.6 0.00 0.00 0.00 43 1017.1
20260905173029 37 293 0.0 3.2 0.00 0.00 0.00 46 1017.2
20260905171535 36 293 0.0 1.6 0.00 0.00 0.00 49 1017.2
20260905170047 36 293 0.0 1.6 0.00 0.00 0.00 49 1017.4
20260905164547 35 293 0.0 4.8 0.00 0.00 0.00 51 1017.6
20260905163049 35 293 0.0 1.6 0.00 0.00 0.00 51 1017.8
20260905161552 35 293 0.0 1.6 0.00 0.00 0.00 53 1017.9
20260905160005 35 292 0.0 0.0 0.00 0.00 0.00 54 1018.2
20260905154502 33 292 0.0 1.6 0.00 0.00 0.00 56 1018.2
20260905153015 31 292 0.0 0.0 0.00 0.00 0.00 68 1018.2
20260905151526 30 292 0.0 0.0 0.00 0.00 0.00 71 1018.4
20260905150032 29 292 0.0 0.0 0.00 0.00 0.00 72 1018.3
20260905144541 28 291 0.0 1.6 0.00 0.00 0.00 74 1018.4
20260905143047 27 291 0.0 0.0 0.00 0.00 0.00 79 1018.4
20260905141537 27 291 0.0 0.0 0.00 0.00 0.00 81 1018.3
20260905140051 26 292 0.0 1.6 0.00 0.00 0.00 82 1018.3
20260905134608 26 292 0.0 0.0 0.00 0.00 0.00 83 1018.3
20260905133011 25 291 0.0 0.0 0.00 0.00 0.00 85 1018.3
20260905131538 25 292 0.0 1.6 0.00 0.00 0.00 85 1018.4
20260905130028 25 291 0.0 0.0 0.00 0.00 0.00 85 1018.4
20260905124543 25 291 0.0 0.0 0.00 0.00 0.00 85 1018.5